Time,TemperatureF,DewpointF,PressureIn,WindDirection,WindDirectionDegrees,WindSpeedMPH,WindSpeedGustMPH,Humidity,HourlyPrecipIn,Conditions,Clouds,dailyrainin,SoftwareType,DateUTC
2013-02-06 00:02:00,24.0,17.0,-100.00,East,90,1.0,1.0,74,0.03,,,-99.99,,2013-02-06 05:02:00,
2013-02-06 00:12:00,24.0,17.0,-100.00,NE,45,1.0,2.0,74,0.01,,,-99.99,,2013-02-06 05:12:00,
2013-02-06 00:22:00,24.0,17.0,-100.00,NNE,20,1.0,1.0,75,0.00,,,-99.99,,2013-02-06 05:22:00,
2013-02-06 00:32:00,24.0,17.0,-100.00,NE,45,1.0,3.0,75,0.00,,,-99.99,,2013-02-06 05:32:00,
2013-02-06 00:42:00,24.0,17.0,-100.00,NE,45,1.0,4.0,76,0.01,,,-99.99,,2013-02-06 05:42:00,
2013-02-06 00:53:00,24.0,17.0,-100.00,North,350,1.0,2.0,77,0.03,,,-99.99,,2013-02-06 05:53:00,
2013-02-06 01:01:00,24.0,18.0,-100.00,NNW,345,1.0,2.0,77,0.04,,,-99.99,,2013-02-06 06:01:00,
2013-02-06 01:11:00,24.0,18.0,-100.00,SW,235,0.0,1.0,78,0.10,,,-99.99,,2013-02-06 06:11:00,
2013-02-06 01:22:00,24.0,18.0,-100.00,ENE,60,1.0,1.0,80,0.04,,,-99.99,,2013-02-06 06:22:00,
2013-02-06 01:32:00,23.0,18.0,-100.00,NNW,335,1.0,2.0,82,0.06,,,-99.99,,2013-02-06 06:32:00,
2013-02-06 01:42:00,23.0,19.0,-100.00,NNW,330,2.0,3.0,84,0.06,,,-99.99,,2013-02-06 06:42:00,
2013-02-06 01:51:00,23.0,19.0,-100.00,NW,315,1.0,2.0,85,0.11,,,-99.99,,2013-02-06 06:51:00,
2013-02-06 02:02:00,23.0,20.0,-100.00,NW,310,2.0,3.0,86,0.04,,,-99.99,,2013-02-06 07:02:00,
2013-02-06 02:11:00,23.0,20.0,-100.00,North,0,1.0,3.0,87,0.01,,,-99.99,,2013-02-06 07:11:00,
2013-02-06 02:22:00,23.0,20.0,-100.00,East,90,0.0,1.0,88,0.04,,,-99.99,,2013-02-06 07:22:00,
2013-02-06 02:32:00,23.0,20.0,-100.00,NNE,30,0.0,2.0,88,0.03,,,-99.99,,2013-02-06 07:32:00,
2013-02-06 02:42:00,23.0,20.0,-100.00,SW,225,0.0,1.0,88,0.00,,,-99.99,,2013-02-06 07:42:00,
2013-02-06 02:52:00,23.0,20.0,-100.00,East,100,0.0,1.0,89,0.01,,,-99.99,,2013-02-06 07:52:00,
2013-02-06 03:01:00,23.0,20.0,-100.00,North,10,0.0,1.0,89,0.03,,,-99.99,,2013-02-06 08:01:00,
2013-02-06 03:11:00,23.0,20.0,-100.00,East,90,0.0,1.0,89,0.00,,,-99.99,,2013-02-06 08:11:00,
2013-02-06 03:21:00,23.0,21.0,-100.00,NNW,340,0.0,0.0,90,0.00,,,-99.99,,2013-02-06 08:21:00,
2013-02-06 03:32:00,23.0,20.0,-100.00,NW,315,1.0,1.0,90,0.00,,,-99.99,,2013-02-06 08:32:00,
2013-02-06 03:42:00,23.0,20.0,-100.00,West,260,0.0,1.0,90,0.00,,,-99.99,,2013-02-06 08:42:00,
2013-02-06 03:53:00,23.0,21.0,-100.00,NW,315,1.0,1.0,91,0.00,,,-99.99,,2013-02-06 08:53:00,
2013-02-06 04:02:00,23.0,21.0,-100.00,NE,45,0.0,1.0,91,0.00,,,-99.99,,2013-02-06 09:02:00,
2013-02-06 04:11:00,22.0,20.0,-100.00,NW,305,1.0,1.0,91,0.00,,,-99.99,,2013-02-06 09:11:00,
2013-02-06 04:22:00,22.0,20.0,-100.00,WNW,290,0.0,2.0,91,0.00,,,-99.99,,2013-02-06 09:22:00,
2013-02-06 04:32:00,22.0,19.0,-100.00,North,10,0.0,1.0,91,0.00,,,-99.99,,2013-02-06 09:32:00,
2013-02-06 04:42:00,22.0,20.0,-100.00,NNW,335,1.0,2.0,92,0.00,,,-99.99,,2013-02-06 09:42:00,
2013-02-06 04:52:00,22.0,20.0,-100.00,ENE,70,1.0,1.0,92,0.00,,,-99.99,,2013-02-06 09:52:00,
2013-02-06 05:01:00,22.0,20.0,-100.00,ENE,70,0.0,1.0,92,0.00,,,-99.99,,2013-02-06 10:01:00,
2013-02-06 05:11:00,22.0,20.0,-100.00,East,80,0.0,2.0,92,0.00,,,-99.99,,2013-02-06 10:11:00,
2013-02-06 05:22:00,22.0,20.0,-100.00,North,350,0.0,1.0,92,0.00,,,-99.99,,2013-02-06 10:22:00,
2013-02-06 05:32:00,22.0,20.0,-100.00,NE,35,1.0,1.0,93,0.00,,,-99.99,,2013-02-06 10:32:00,
2013-02-06 05:42:00,22.0,20.0,-100.00,East,80,0.0,1.0,93,0.00,,,-99.99,,2013-02-06 10:42:00,
2013-02-06 05:52:00,22.0,21.0,-100.00,ENE,70,1.0,2.0,93,0.00,,,-99.99,,2013-02-06 10:52:00,
2013-02-06 06:02:00,22.0,21.0,-100.00,SE,145,0.0,1.0,93,0.00,,,-99.99,,2013-02-06 11:02:00,
2013-02-06 06:11:00,22.0,20.0,-100.00,NNE,15,1.0,1.0,93,0.00,,,-99.99,,2013-02-06 11:11:00,
2013-02-06 06:22:00,22.0,21.0,-100.00,NNW,345,1.0,2.0,93,0.00,,,-99.99,,2013-02-06 11:22:00,
2013-02-06 06:32:00,22.0,21.0,-100.00,ENE,70,0.0,3.0,93,0.00,,,-99.99,,2013-02-06 11:32:00,
2013-02-06 06:42:00,22.0,21.0,-100.00,NNW,330,1.0,4.0,93,0.00,,,-99.99,,2013-02-06 11:42:00,
2013-02-06 06:52:00,22.0,21.0,-100.00,NNW,330,1.0,4.0,93,0.00,,,-99.99,,2013-02-06 11:52:00,
2013-02-06 07:02:00,23.0,21.0,-100.00,East,80,0.0,3.0,93,0.00,,,-99.99,,2013-02-06 12:02:00,
2013-02-06 07:12:00,22.0,21.0,-100.00,East,90,0.0,2.0,93,0.00,,,-99.99,,2013-02-06 12:12:00,
2013-02-06 07:22:00,22.0,20.0,-100.00,South,170,0.0,1.0,93,0.00,,,-99.99,,2013-02-06 12:22:00,
2013-02-06 07:32:00,22.0,20.0,-100.00,East,80,0.0,4.0,93,0.00,,,-99.99,,2013-02-06 12:32:00,
2013-02-06 07:42:00,22.0,21.0,-100.00,NW,315,1.0,2.0,93,0.00,,,-99.99,,2013-02-06 12:42:00,
2013-02-06 07:52:00,23.0,21.0,-100.00,SE,125,1.0,2.0,93,0.00,,,-99.99,,2013-02-06 12:52:00,
2013-02-06 08:02:00,23.0,22.0,-100.00,WNW,285,1.0,2.0,93,0.00,,,-99.99,,2013-02-06 13:02:00,
2013-02-06 08:12:00,24.0,22.0,-100.00,West,260,1.0,3.0,93,0.00,,,-99.99,,2013-02-06 13:12:00,
2013-02-06 08:22:00,24.0,22.0,-100.00,SSE,150,1.0,2.0,92,0.00,,,-99.99,,2013-02-06 13:22:00,
2013-02-06 08:32:00,24.0,22.0,-100.00,West,280,1.0,3.0,92,0.00,,,-99.99,,2013-02-06 13:32:00,
2013-02-06 08:42:00,24.0,22.0,-100.00,South,180,1.0,3.0,91,0.00,,,-99.99,,2013-02-06 13:42:00,
2013-02-06 08:52:00,25.0,22.0,-100.00,SSW,205,1.0,3.0,91,0.00,,,-99.99,,2013-02-06 13:52:00,
2013-02-06 09:02:00,25.0,23.0,-100.00,WNW,290,1.0,2.0,90,0.00,,,-99.99,,2013-02-06 14:02:00,
2013-02-06 09:11:00,26.0,23.0,-100.00,SSE,155,1.0,3.0,89,0.00,,,-99.99,,2013-02-06 14:11:00,
2013-02-06 09:22:00,27.0,24.0,-100.00,East,80,1.0,4.0,88,0.00,,,-99.99,,2013-02-06 14:22:00,
2013-02-06 09:32:00,28.0,24.0,-100.00,WNW,300,2.0,4.0,85,0.00,,,-99.99,,2013-02-06 14:32:00,
2013-02-06 09:42:00,29.0,25.0,-100.00,West,275,1.0,7.0,84,0.00,,,-99.99,,2013-02-06 14:42:00,
2013-02-06 09:52:00,30.0,25.0,-100.00,WNW,285,2.0,5.0,81,0.00,,,-99.99,,2013-02-06 14:52:00,
2013-02-06 10:02:00,30.0,24.0,-100.00,West,275,2.0,6.0,79,0.00,,,-99.99,,2013-02-06 15:02:00,
2013-02-06 10:11:00,31.0,25.0,-100.00,NNW,335,2.0,6.0,77,0.00,,,-99.99,,2013-02-06 15:11:00,
2013-02-06 10:21:00,31.0,24.0,-100.00,West,265,4.0,8.0,76,0.00,,,-99.99,,2013-02-06 15:21:00,
2013-02-06 10:32:00,32.0,24.0,-100.00,NW,320,4.0,10.0,74,0.00,,,-99.99,,2013-02-06 15:32:00,
2013-02-06 10:42:00,31.0,24.0,-100.00,WNW,295,3.0,9.0,72,0.00,,,-99.99,,2013-02-06 15:42:00,
2013-02-06 10:52:00,33.0,24.0,-100.00,WNW,300,4.0,6.0,70,0.00,,,-99.99,,2013-02-06 15:52:00,
2013-02-06 11:01:00,34.0,25.0,-100.00,NNW,330,2.0,7.0,70,0.00,,,-99.99,,2013-02-06 16:01:00,
2013-02-06 11:11:00,34.0,24.0,-100.00,NW,325,4.0,8.0,66,0.00,,,-99.99,,2013-02-06 16:11:00,
2013-02-06 11:22:00,33.0,23.0,-100.00,NNW,335,7.0,12.0,64,0.00,,,-99.99,,2013-02-06 16:22:00,
2013-02-06 11:32:00,35.0,23.0,-100.00,NNW,335,4.0,12.0,61,0.00,,,-99.99,,2013-02-06 16:32:00,
2013-02-06 11:42:00,35.0,22.0,-100.00,NNW,335,3.0,16.0,59,0.00,,,-99.99,,2013-02-06 16:42:00,
2013-02-06 11:52:00,35.0,22.0,-100.00,West,280,6.0,12.0,57,0.00,,,-99.99,,2013-02-06 16:52:00,
2013-02-06 12:02:00,36.0,21.0,-100.00,WNW,285,6.0,13.0,55,0.00,,,-99.99,,2013-02-06 17:02:00,
2013-02-06 12:12:00,36.0,20.0,-100.00,NNW,335,7.0,15.0,52,0.00,,,-99.99,,2013-02-06 17:12:00,
2013-02-06 12:22:00,37.0,19.0,-100.00,WNW,300,7.0,14.0,48,0.00,,,-99.99,,2013-02-06 17:22:00,
2013-02-06 12:32:00,38.0,19.0,-100.00,NNW,335,7.0,14.0,46,0.00,,,-99.99,,2013-02-06 17:32:00,
2013-02-06 12:42:00,38.0,19.0,-100.00,NW,315,4.0,11.0,45,0.00,,,-99.99,,2013-02-06 17:42:00,
2013-02-06 12:52:00,38.0,18.0,-100.00,WNW,285,4.0,13.0,43,0.00,,,-99.99,,2013-02-06 17:52:00,
2013-02-06 13:02:00,36.0,17.0,-100.00,NW,315,6.0,15.0,45,0.00,,,-99.99,,2013-02-06 18:02:00,
2013-02-06 13:12:00,37.0,18.0,-100.00,NW,320,8.0,17.0,44,0.00,,,-99.99,,2013-02-06 18:12:00,
2013-02-06 13:23:00,36.0,18.0,-100.00,NW,315,4.0,16.0,47,0.00,,,-99.99,,2013-02-06 18:23:00,
2013-02-06 13:32:00,36.0,18.0,-100.00,NW,320,9.0,12.0,46,0.00,,,-99.99,,2013-02-06 18:32:00,
2013-02-06 13:42:00,36.0,17.0,-100.00,NW,325,10.0,15.0,45,0.00,,,-99.99,,2013-02-06 18:42:00,
2013-02-06 13:52:00,36.0,17.0,-100.00,NW,320,9.0,18.0,46,0.00,,,-99.99,,2013-02-06 18:52:00,
2013-02-06 14:02:00,35.0,16.0,-100.00,NW,315,12.0,20.0,44,0.00,,,-99.99,,2013-02-06 19:02:00,
2013-02-06 14:11:00,35.0,16.0,-100.00,NW,325,12.0,20.0,45,0.00,,,-99.99,,2013-02-06 19:11:00,
2013-02-06 14:22:00,35.0,16.0,-100.00,NNW,335,11.0,17.0,44,0.00,,,-99.99,,2013-02-06 19:22:00,
2013-02-06 14:32:00,35.0,16.0,-100.00,NW,310,9.0,16.0,46,0.00,,,-99.99,,2013-02-06 19:32:00,
2013-02-06 14:42:00,35.0,17.0,-100.00,NW,315,6.0,19.0,47,0.00,,,-99.99,,2013-02-06 19:42:00,
2013-02-06 14:52:00,35.0,18.0,-100.00,NNW,330,7.0,15.0,49,0.00,,,-99.99,,2013-02-06 19:52:00,
2013-02-06 15:01:00,35.0,18.0,-100.00,NNW,340,6.0,15.0,48,0.00,,,-99.99,,2013-02-06 20:01:00,
2013-02-06 15:11:00,36.0,18.0,-100.00,NW,320,6.0,14.0,47,0.00,,,-99.99,,2013-02-06 20:11:00,
2013-02-06 15:21:00,36.0,17.0,-100.00,NNW,335,7.0,16.0,44,0.00,,,-99.99,,2013-02-06 20:21:00,
2013-02-06 15:32:00,36.0,16.0,-100.00,NW,320,8.0,14.0,44,0.00,,,-99.99,,2013-02-06 20:32:00,
2013-02-06 15:42:00,36.0,16.0,-100.00,NW,305,9.0,17.0,44,0.00,,,-99.99,,2013-02-06 20:42:00,
2013-02-06 15:52:00,36.0,16.0,-100.00,NNW,335,10.0,15.0,42,0.00,,,-99.99,,2013-02-06 20:52:00,
2013-02-06 16:02:00,36.0,15.0,-100.00,NW,325,12.0,19.0,41,0.00,,,-99.99,,2013-02-06 21:02:00,
2013-02-06 16:11:00,37.0,14.0,-100.00,NNW,335,8.0,14.0,39,0.00,,,-99.99,,2013-02-06 21:11:00,
2013-02-06 16:21:00,36.0,13.0,-100.00,NW,325,7.0,17.0,38,0.00,,,-99.99,,2013-02-06 21:21:00,
2013-02-06 16:32:00,36.0,12.0,-100.00,NNW,340,9.0,18.0,37,0.00,,,-99.99,,2013-02-06 21:32:00,
2013-02-06 16:42:00,36.0,12.0,-100.00,NW,315,5.0,14.0,37,0.00,,,-99.99,,2013-02-06 21:42:00,
2013-02-06 16:51:00,35.0,12.0,-100.00,NW,325,9.0,16.0,37,0.00,,,-99.99,,2013-02-06 21:51:00,
2013-02-06 17:01:00,35.0,12.0,-100.00,NNW,340,6.0,12.0,38,0.00,,,-99.99,,2013-02-06 22:01:00,
2013-02-06 17:11:00,35.0,13.0,-100.00,NW,325,7.0,13.0,39,0.00,,,-99.99,,2013-02-06 22:11:00,
2013-02-06 17:22:00,35.0,13.0,-100.00,NW,315,6.0,10.0,39,0.00,,,-99.99,,2013-02-06 22:22:00,
2013-02-06 17:32:00,34.0,12.0,-100.00,NNW,330,4.0,7.0,39,0.00,,,-99.99,,2013-02-06 22:32:00,
2013-02-06 17:42:00,34.0,12.0,-100.00,NNW,335,6.0,10.0,40,0.00,,,-99.99,,2013-02-06 22:42:00,
2013-02-06 17:52:00,34.0,12.0,-100.00,NW,310,4.0,8.0,39,0.00,,,-99.99,,2013-02-06 22:52:00,
2013-02-06 18:01:00,34.0,11.0,-100.00,NNW,330,7.0,9.0,37,0.00,,,-99.99,,2013-02-06 23:01:00,
2013-02-06 18:11:00,34.0,10.0,-100.00,NNW,330,6.0,11.0,37,0.00,,,-99.99,,2013-02-06 23:11:00,
2013-02-06 18:21:00,33.0,10.0,-100.00,NNW,330,6.0,8.0,38,0.00,,,-99.99,,2013-02-06 23:21:00,
2013-02-06 18:32:00,33.0,11.0,-100.00,NW,325,4.0,7.0,39,0.00,,,-99.99,,2013-02-06 23:32:00,
2013-02-06 18:42:00,32.0,11.0,-100.00,NNW,330,6.0,9.0,40,0.00,,,-99.99,,2013-02-06 23:42:00,
2013-02-06 18:52:00,32.0,10.0,-100.00,NW,315,5.0,8.0,39,0.00,,,-99.99,,2013-02-06 23:52:00,
2013-02-06 19:02:00,32.0,11.0,-100.00,NW,315,4.0,7.0,41,0.00,,,-99.99,,2013-02-07 00:02:00,
2013-02-06 19:11:00,31.0,11.0,-100.00,WSW,255,3.0,9.0,43,0.00,,,-99.99,,2013-02-07 00:11:00,
2013-02-06 19:22:00,31.0,11.0,-100.00,NW,315,4.0,7.0,43,0.00,,,-99.99,,2013-02-07 00:22:00,
2013-02-06 19:32:00,31.0,11.0,-100.00,NNW,335,2.0,6.0,42,0.00,,,-99.99,,2013-02-07 00:32:00,
2013-02-06 19:42:00,31.0,11.0,-100.00,NW,315,2.0,7.0,43,0.00,,,-99.99,,2013-02-07 00:42:00,
2013-02-06 19:52:00,30.0,10.0,-100.00,WNW,290,4.0,9.0,42,0.00,,,-99.99,,2013-02-07 00:52:00,
2013-02-06 20:01:00,30.0,10.0,-100.00,NW,320,2.0,8.0,42,0.00,,,-99.99,,2013-02-07 01:01:00,
2013-02-06 20:11:00,30.0,9.0,-100.00,NW,305,2.0,6.0,41,0.00,,,-99.99,,2013-02-07 01:11:00,
2013-02-06 20:21:00,30.0,9.0,-100.00,NW,315,1.0,6.0,41,0.00,,,-99.99,,2013-02-07 01:21:00,
2013-02-06 20:32:00,30.0,8.0,-100.00,NW,305,3.0,7.0,39,0.00,,,-99.99,,2013-02-07 01:32:00,
2013-02-06 20:42:00,29.0,8.0,-100.00,WNW,295,2.0,6.0,40,0.00,,,-99.99,,2013-02-07 01:42:00,
2013-02-06 20:52:00,29.0,7.0,-100.00,NW,310,3.0,6.0,38,0.00,,,-99.99,,2013-02-07 01:52:00,
2013-02-06 21:02:00,29.0,8.0,-100.00,NNW,330,3.0,7.0,40,0.00,,,-99.99,,2013-02-07 02:02:00,
2013-02-06 21:12:00,28.0,9.0,-100.00,NW,325,1.0,7.0,44,0.00,,,-99.99,,2013-02-07 02:12:00,
2013-02-06 21:21:00,27.0,8.0,-100.00,North,0,1.0,4.0,42,0.00,,,-99.99,,2013-02-07 02:21:00,
2013-02-06 21:32:00,27.0,9.0,-100.00,East,90,1.0,2.0,46,0.00,,,-99.99,,2013-02-07 02:32:00,
2013-02-06 21:42:00,27.0,9.0,-100.00,East,90,1.0,2.0,46,0.00,,,-99.99,,2013-02-07 02:42:00,
2013-02-06 21:51:00,27.0,9.0,-100.00,East,90,1.0,2.0,46,0.00,,,-99.99,,2013-02-07 02:51:00,
2013-02-06 22:02:00,26.0,9.0,-100.00,NW,325,1.0,2.0,49,0.00,,,-99.99,,2013-02-07 03:02:00,
2013-02-06 22:11:00,26.0,9.0,-100.00,North,0,1.0,7.0,46,0.00,,,-99.99,,2013-02-07 03:11:00,
2013-02-06 22:21:00,26.0,10.0,-100.00,NNE,15,1.0,3.0,49,0.00,,,-99.99,,2013-02-07 03:21:00,
2013-02-06 22:32:00,26.0,10.0,-100.00,NNE,25,1.0,7.0,50,0.00,,,-99.99,,2013-02-07 03:32:00,
2013-02-06 22:42:00,26.0,11.0,-100.00,North,0,2.0,6.0,51,0.00,,,-99.99,,2013-02-07 03:42:00,
2013-02-06 22:52:00,26.0,9.0,-100.00,North,5,3.0,6.0,47,0.00,,,-99.99,,2013-02-07 03:52:00,
2013-02-06 23:01:00,26.0,8.0,-100.00,NNE,30,1.0,6.0,46,0.00,,,-99.99,,2013-02-07 04:01:00,
2013-02-06 23:11:00,26.0,4.0,-100.00,NNW,345,4.0,7.0,38,0.00,,,-99.99,,2013-02-07 04:11:00,
2013-02-06 23:22:00,26.0,2.0,-100.00,ENE,65,2.0,11.0,35,0.00,,,-99.99,,2013-02-07 04:22:00,
2013-02-06 23:32:00,26.0,2.0,-100.00,North,10,3.0,10.0,35,0.00,,,-99.99,,2013-02-07 04:32:00,
2013-02-06 23:42:00,25.0,2.0,-100.00,ENE,65,2.0,7.0,36,0.00,,,-99.99,,2013-02-07 04:42:00,
2013-02-06 23:53:00,24.0,2.0,-100.00,NE,45,4.0,11.0,38,0.00,,,-99.99,,2013-02-07 04:53:00,